Погода в Кызылорде

Погода в Кызылорде : погода сейчас, прогноз погоды и архив. Всё, что Вы хотите узнать о погоде в Кызылорде!

Хотите узнать прогноз погоды в Кызылорде? Тогда Вам сюда: Погода в Кызылорде

Поиск расширенной информации на нашем сайте:

Другие новости

Новости СМИ2

Главная страница сайта

Новости сайта

03.07.2017

Напоминаем, что на нашем специализированном сайте Метеоцентр.Азия вы можете получить высокодетализированные автоматические прогнозы погоды по пунктам России, СНГ и мира в авиационном формате (включающие направление и скорость ветра, видимость, явления погоды, количество и форму облачности, нижнюю и верхнюю границу облачности).

Рекомендуем: Цветы в шляпных коробках цветы в шляпных коробках.

Погода в Кызылорде - сегодня

Время (UTC), дата Ветер
(°,м/с) 
Видим.   Явления Облачность Т
(°С)
Тd
(°С)
f(%) Тe
(°С)
Pmin
(гПа)
dP
(гПа)
Po
(мм)
O2
(г/м3)
Тmin Tmax R s Состояние
почвы
18 17.11.17 тихо ()   н/о    8/0 средняя 
[Ac cast]
+2.5 -2.4 70 +3  1025.4  -0.9  757  302    +9.8       
21 17.11.17 230 (ЮЗ) н/о    6/0 средняя 
[Ac trans]
+1.8 -2.9 71 +3  1023.7  -1.6  756  303           
00 18.11.17 240 (ЮЗ) н/о    9/9 600 м 
[Cu Sc]
+2.7 -3.5 64 +1  1022.2  -1.4  755  301           
03 18.11.17 270 (З) 10 км  слаб. дождь  10/10 600 м 
[Cu Sc]
+4.1 -1.4 67 +2  1022.9  0.7  755  300      0.0     
06 18.11.17 290 (З) 20000 м  в посл. час дождь со снегом  10/10 600 м 
[Ns]
+1.7 +0.1 89 +1  1025.6  2.5  757  303  +1.4    0.0     
09 18.11.17 320 (СЗ) 20000 м    10/10 600 м 
[Ns]
+2.8 -2 71 1028.1  2.6  759  303           
12 18.11.17 300 (СЗ) 20000 м    10/10 600 м 
[Ns]
+2.8 -2.4 69 +1  1031.5  3.3  761  304           
15 18.11.17 310 (СЗ) н/о    10/10 600 м 
[Sc]
+2.4 -2.5 70 1033.8  2.2  763  305    +4.1     
18 18.11.17 320 (СЗ) н/о    10/10 600 м 
[Cu Sc]
+2.4 -3.2 66 +2  1036.1  2.2  765  306    +4.1     
21 18.11.17 290 (З) н/о    8/8 1000 м 
[Cu Sc]
+1.9 -3.1 69 +1  1037.2  1.1  765  307           
00 19.11.17 тихо ()   н/о    3/3 1500 м 
[Sc diur, vesp]
-1.2 -3.4 85 -1  1038.1  0.8  766  310           
03 19.11.17 тихо ()   20000 м    3/0 средняя 
[Ac cast]
-3.1 -4.8 88 -3  1039  0.8  767  313           
06 19.11.17 070 (В) 20000 м    ясно 
+4.1 -5 51 +5  1039.5  0.8  767  305  -3.4         
09 19.11.17 050 (СВ) 20000 м    ясно 
+4.8 -4.7 50 +4  1038.3  -1  767  304           
12 19.11.17 070 (В) 20000 м    ясно 
+4 -4 56 +3  1037.1  -1.3  766  304           
15 19.11.17 060 (СВ) н/о    ясно 
+1 -4.6 66 1036.1  -1.2  765  308    +5.4       
18 19.11.17 070 (В) н/о    ясно 
+0.4 -4.3 71 1034.9  -1.3  764  308    +5.4       
21 19.11.17 050 (СВ) н/о    ясно 
-0.4 -4.9 72 -3  1033.7  -1.1  763  308           
00 20.11.17 080 (В) н/о    ясно 
-1.6 -5.6 74 -5  1032.8  -1  762  310           
03 20.11.17 050 (СВ) 20000 м    5/0 средняя, верхняя 
[Ac lent|Ci sp]
-2.5 -5.2 82 -5  1032.5  -0.3  762  310           
06 20.11.17 060 (СВ) 20000 м    4/0 верхняя 
[Ci fib]
+2.3 -2.3 72 +1  1032.5  0.2  762  305  -3         
09 20.11.17 070 (В) 20000 м    6/0 верхняя 
[Ci]
+5.7 -3 54 +4  1030.9  -1.3  761  301           
12 20.11.17 060 (СВ) 20000 м    6/0 верхняя 
[Ci]
+4.5 -3.6 56 +2  1030.3  -0.8  760  302           
15 20.11.17 050 (СВ) н/о    4/0 верхняя 
[Ci fib]
+1.6 -4.2 65 1030  -0.4  760  305    +6.6       
18 20.11.17 070 (В) н/о    ясно 
+0.8 -4.2 69 -2  1029.1  -0.9  759  306    +6.6       
Время (UTC), дата Ветер
(°,м/с) 
Видим.   Явления Облачность Т
(°С)
Тd
(°С)
f(%) Тe
(°С)
Pmin
(гПа)
dP
(гПа)
Po
(мм)
O2
(г/м3)
Тmin Tmax R s Состояние
почвы

Для получения пояснительной информации подведите курсор к названию столбца.

ПОГОДА в Кызылорде - архив

Всё, что Вы хотите узнать о погоде в Кызылорде - удобно и подробно!

Выберите нужную дату (начиная с 1 января 2015* года) и нажмите кнопку "Найти".
Будут отображены архивные сводки погоды по пункту Кызылорда, начиная с указанной даты.


Отображать данные в формате CSV (для использования в таблицах Excel)


Внимание! Наш архив погоды предназначен исключительно для личного некоммерческого использования в познавательных целях. Если Вам необходимы официальные справки о состоянии погоды (для производственных, юридических, коммерческих и т.п. целей), обращайтесь в органы Росгидромета.

*Примечание: данная дата относится к архиву по метеостанциям СССР (Россия, СНГ, Балтия).
Архив по метеостанциям Зарубежной Европы и Азии (кроме Китая) хранится 10 дней, по другим регионам земного шара (Китай, Африка, Америка, Австралия, Океания) - 1 день.

Кызылорда - район местоположения метеостанции


Название, широта, долгота, высота метеостанции:
Кызылорда (город) 44.8°ш. 65.5°д. 130 м над ур. моря [Казахстан]

Дополнительная информация

В oтличие oт бoльшинства пoгoдных сайтoв мы публикуем пoдрoбную метеoинфoрмацию в детальнoм прoфессиoнальнoм фoрмате.

Характеристики температуры и влажнoсти вoздуха измеряются на высoте 2 м в тени вдали oт зданий и деревьев.
Скoрoсть ветра измеряется на высoте 10 м (на урoвне рoста челoвека скoрoсть ветра ниже в 1.5-2 раза). Если метеoстанция нахoдится в гoрoде или в лесу, тo скoрoсть ветра занижена на 2-4 м/с пo сравнению с oткрытым местoм. Скoрoсть ветра над акватoриями крупных рек и oзёр, а также на вершинах хoлмoв на 2-5 м/с выше, чем в oбычных услoвиях.
Атмoсфернoе давление в разных тoчках местнoсти мoжет значительнo oтличаться oт давления на метеoстанции, в зависимoсти oт услoвий рельефа (при пoдъёме на 10 м давление пoнижается примернo на 1 мм рт.ст.).